| time (UTC) | temp F | wind direction | speed knots | gust knots | rain 1hr in | rain 24hr in | rain mn in | humidity % | barometer mb |
| 20260507010903 | 58 | 206 | 3.5 | 8.7 | 0.00 | 0.05 | 0.05 | 95 | 1006.4 |
| 20260507010213 | 58 | 205 | 3.5 | 8.7 | 0.00 | 0.05 | 0.05 | 95 | 1006.3 |
| 20260507005403 | 58 | 205 | 4.3 | 10.4 | 0.00 | 0.05 | 0.05 | 95 | 1006.3 |
| 20260507004503 | 58 | 226 | 3.5 | 9.6 | 0.00 | 0.05 | 0.05 | 95 | 1006.3 |
| 20260507003603 | 58 | 214 | 2.6 | 7.8 | 0.00 | 0.05 | 0.05 | 95 | 1006.2 |
| 20260507002913 | 58 | 211 | 3.5 | 10.4 | 0.00 | 0.05 | 0.05 | 95 | 1006.2 |
| 20260507001803 | 58 | 212 | 2.6 | 7.0 | 0.00 | 0.05 | 0.05 | 95 | 1006.3 |
| 20260507000903 | 58 | 218 | 3.5 | 7.0 | 0.00 | 0.05 | 0.05 | 95 | 1006.1 |
| 20260507000004 | 58 | 218 | 2.6 | 7.8 | 0.01 | 0.05 | 0.05 | 96 | 1006.0 |
| 20260506235612 | 58 | 221 | 2.6 | 7.0 | 0.01 | 0.05 | 0.05 | 96 | 1006.0 |
| 20260506234714 | 58 | 209 | 3.5 | 9.6 | 0.01 | 0.05 | 0.05 | 96 | 1006.0 |
| 20260506233603 | 58 | 189 | 1.7 | 6.1 | 0.01 | 0.05 | 0.05 | 96 | 1005.9 |
| 20260506232703 | 58 | 182 | 1.7 | 6.1 | 0.01 | 0.05 | 0.05 | 96 | 1005.9 |
| 20260506231803 | 58 | 183 | 1.7 | 5.2 | 0.01 | 0.05 | 0.05 | 96 | 1005.9 |
| 20260506230903 | 58 | 180 | 2.6 | 7.0 | 0.01 | 0.05 | 0.05 | 96 | 1005.8 |
| 20260506230003 | 58 | 188 | 1.7 | 6.1 | 0.00 | 0.04 | 0.04 | 96 | 1005.8 |
| 20260506225403 | 58 | 179 | 2.6 | 7.0 | 0.00 | 0.04 | 0.04 | 96 | 1005.8 |
| 20260506224503 | 58 | 181 | 2.6 | 7.0 | 0.00 | 0.04 | 0.04 | 95 | 1006.0 |
| 20260506223603 | 58 | 179 | 1.7 | 6.1 | 0.00 | 0.04 | 0.04 | 95 | 1006.0 |
| 20260506222703 | 58 | 190 | 1.7 | 7.8 | 0.00 | 0.04 | 0.04 | 95 | 1006.1 |
| 20260506221803 | 58 | 175 | 1.7 | 6.1 | 0.00 | 0.04 | 0.04 | 95 | 1006.1 |
| 20260506220903 | 58 | 173 | 2.6 | 8.7 | 0.00 | 0.04 | 0.04 | 95 | 1006.3 |
| 20260506220005 | 58 | 180 | 2.6 | 7.8 | 0.00 | 0.04 | 0.04 | 95 | 1006.2 |
| 20260506215403 | 58 | 174 | 1.7 | 7.8 | 0.00 | 0.04 | 0.04 | 95 | 1006.3 |
| 20260506214503 | 58 | 182 | 2.6 | 7.8 | 0.01 | 0.04 | 0.04 | 95 | 1006.3 |
| 20260506213603 | 58 | 160 | 2.6 | 7.8 | 0.01 | 0.04 | 0.04 | 95 | 1006.3 |
| 20260506212703 | 58 | 190 | 2.6 | 7.0 | 0.01 | 0.04 | 0.04 | 94 | 1006.4 |
| 20260506211803 | 58 | 167 | 2.6 | 7.8 | 0.01 | 0.04 | 0.04 | 94 | 1006.4 |
| 20260506210903 | 58 | 195 | 2.6 | 7.0 | 0.01 | 0.04 | 0.04 | 94 | 1006.5 |
| 20260506210214 | 58 | 182 | 1.7 | 6.1 | 0.01 | 0.04 | 0.04 | 94 | 1006.6 |
| 20260506205613 | 58 | 174 | 1.7 | 7.8 | 0.02 | 0.04 | 0.04 | 94 | 1006.5 |
| 20260506204713 | 58 | 184 | 2.6 | 9.6 | 0.01 | 0.03 | 0.03 | 94 | 1006.7 |
| 20260506203814 | 58 | 183 | 2.6 | 7.0 | 0.01 | 0.03 | 0.03 | 94 | 1006.9 |
| 20260506202703 | 58 | 185 | 3.5 | 12.2 | 0.01 | 0.03 | 0.03 | 94 | 1007.0 |
| 20260506202013 | 58 | 186 | 2.6 | 6.1 | 0.01 | 0.03 | 0.03 | 94 | 1007.0 |
| 20260506200903 | 58 | 176 | 3.5 | 8.7 | 0.02 | 0.03 | 0.03 | 93 | 1007.0 |
| 20260506200004 | 59 | 169 | 2.6 | 8.7 | 0.02 | 0.03 | 0.03 | 93 | 1007.0 |
| 20260506195403 | 59 | 177 | 2.6 | 8.7 | 0.01 | 0.02 | 0.02 | 93 | 1007.1 |
| 20260506194503 | 59 | 183 | 5.2 | 12.2 | 0.01 | 0.02 | 0.02 | 92 | 1007.2 |
| 20260506193603 | 59 | 179 | 4.3 | 12.2 | 0.01 | 0.02 | 0.02 | 92 | 1007.2 |
| 20260506192703 | 60 | 172 | 5.2 | 14.8 | 0.01 | 0.02 | 0.02 | 91 | 1007.1 |
| 20260506191803 | 60 | 182 | 3.5 | 13.0 | 0.02 | 0.02 | 0.02 | 91 | 1007.2 |
| 20260506190903 | 60 | 192 | 3.5 | 8.7 | 0.01 | 0.01 | 0.01 | 91 | 1007.2 |
| 20260506190003 | 60 | 193 | 3.5 | 10.4 | 0.01 | 0.01 | 0.01 | 90 | 1007.3 |
| 20260506185403 | 60 | 176 | 3.5 | 13.0 | 0.01 | 0.01 | 0.01 | 90 | 1007.2 |
| 20260506184503 | 61 | 173 | 2.6 | 7.8 | 0.01 | 0.01 | 0.01 | 90 | 1007.1 |
| 20260506183603 | 61 | 197 | 3.5 | 11.3 | 0.01 | 0.01 | 0.01 | 88 | 1007.4 |
| 20260506182912 | 62 | 194 | 2.6 | 11.3 | 0.01 | 0.01 | 0.01 | 86 | 1007.5 |
| 20260506181803 | 62 | 205 | 2.6 | 8.7 | 0.00 | 0.00 | 0.00 | 85 | 1007.9 |
| 20260506180903 | 63 | 214 | 2.6 | 8.7 | 0.00 | 0.00 | 0.00 | 82 | 1007.7 |
| 20260506180003 | 64 | 207 | 5.2 | 13.9 | 0.00 | 0.00 | 0.00 | 78 | 1008.0 |
| 20260506175403 | 65 | 217 | 7.0 | 13.9 | 0.00 | 0.00 | 0.00 | 74 | 1008.1 |
| 20260506174503 | 66 | 222 | 6.1 | 18.2 | 0.00 | 0.00 | 0.00 | 70 | 1008.1 |
| 20260506173603 | 68 | 204 | 4.3 | 18.2 | 0.00 | 0.00 | 0.00 | 65 | 1007.9 |
| 20260506172703 | 69 | 198 | 4.3 | 14.8 | 0.00 | 0.00 | 0.00 | 64 | 1007.8 |
| 20260506171803 | 69 | 181 | 6.1 | 18.2 | 0.00 | 0.00 | 0.00 | 62 | 1007.6 |
| 20260506170903 | 70 | 182 | 4.3 | 13.0 | 0.00 | 0.00 | 0.00 | 62 | 1007.7 |
| 20260506170004 | 69 | 213 | 5.2 | 19.1 | 0.00 | 0.00 | 0.00 | 61 | 1007.7 |
| 20260506165403 | 69 | 204 | 6.1 | 19.1 | 0.00 | 0.00 | 0.00 | 61 | 1007.7 |
| 20260506164503 | 70 | 187 | 6.1 | 17.4 | 0.00 | 0.00 | 0.00 | 60 | 1007.9 |
| 20260506163812 | 70 | 187 | 4.3 | 16.5 | 0.00 | 0.00 | 0.00 | 61 | 1007.8 |
| 20260506162703 | 69 | 196 | 4.3 | 14.8 | 0.00 | 0.00 | 0.00 | 62 | 1008.0 |
| 20260506162013 | 69 | 189 | 4.3 | 12.2 | 0.00 | 0.00 | 0.00 | 63 | 1008.2 |
| 20260506160903 | 68 | 202 | 5.2 | 13.9 | 0.00 | 0.00 | 0.00 | 63 | 1008.2 |
| 20260506160003 | 68 | 209 | 4.3 | 13.9 | 0.00 | 0.00 | 0.00 | 64 | 1008.6 |
| 20260506155613 | 68 | 209 | 4.3 | 13.9 | 0.00 | 0.00 | 0.00 | 64 | 1008.6 |
| 20260506154503 | 68 | 187 | 4.3 | 14.8 | 0.00 | 0.00 | 0.00 | 63 | 1008.9 |
| 20260506153603 | 68 | 197 | 3.5 | 13.9 | 0.00 | 0.00 | 0.00 | 65 | 1008.9 |
| 20260506152913 | 68 | 214 | 4.3 | 14.8 | 0.00 | 0.00 | 0.00 | 65 | 1008.9 |
| 20260506151803 | 68 | 203 | 4.3 | 9.6 | 0.00 | 0.00 | 0.00 | 65 | 1009.1 |
| 20260506150903 | 68 | 186 | 2.6 | 8.7 | 0.00 | 0.00 | 0.00 | 66 | 1009.3 |
| 20260506150003 | 68 | 201 | 4.3 | 13.0 | 0.00 | 0.00 | 0.00 | 66 | 1009.4 |
| 20260506145403 | 68 | 190 | 4.3 | 13.0 | 0.00 | 0.00 | 0.00 | 67 | 1009.4 |
| 20260506144503 | 68 | 170 | 2.6 | 7.8 | 0.00 | 0.00 | 0.00 | 70 | 1009.3 |
| 20260506143603 | 67 | 184 | 3.5 | 12.2 | 0.00 | 0.00 | 0.00 | 69 | 1009.5 |
| 20260506142913 | 67 | 190 | 4.3 | 13.9 | 0.00 | 0.00 | 0.00 | 70 | 1009.5 |
| 20260506141803 | 66 | 202 | 4.3 | 10.4 | 0.00 | 0.00 | 0.00 | 71 | 1009.4 |
| 20260506140903 | 66 | 211 | 3.5 | 11.3 | 0.00 | 0.00 | 0.00 | 72 | 1009.4 |
| 20260506140003 | 65 | 195 | 4.3 | 11.3 | 0.00 | 0.00 | 0.00 | 72 | 1009.2 |
| 20260506135613 | 65 | 189 | 4.3 | 13.0 | 0.00 | 0.00 | 0.00 | 72 | 1009.1 |
| 20260506134503 | 65 | 184 | 3.5 | 7.8 | 0.00 | 0.00 | 0.00 | 73 | 1009.3 |
| 20260506133603 | 65 | 179 | 2.6 | 8.7 | 0.00 | 0.00 | 0.00 | 74 | 1009.3 |
| 20260506132703 | 65 | 172 | 3.5 | 7.8 | 0.00 | 0.00 | 0.00 | 74 | 1009.4 |
| 20260506132014 | 64 | 180 | 3.5 | 10.4 | 0.00 | 0.00 | 0.00 | 74 | 1009.5 |
| 20260506130904 | 64 | 209 | 4.3 | 10.4 | 0.00 | 0.00 | 0.00 | 76 | 1009.9 |
| 20260506130003 | 63 | 195 | 3.5 | 8.7 | 0.00 | 0.00 | 0.00 | 77 | 1010.0 |
| 20260506125403 | 63 | 210 | 3.5 | 8.7 | 0.00 | 0.00 | 0.00 | 77 | 1010.0 |
| 20260506124503 | 63 | 195 | 3.5 | 12.2 | 0.00 | 0.00 | 0.00 | 78 | 1009.9 |
| 20260506123813 | 63 | 196 | 3.5 | 12.2 | 0.00 | 0.00 | 0.00 | 78 | 1009.9 |
| 20260506122703 | 63 | 202 | 3.5 | 9.6 | 0.00 | 0.00 | 0.00 | 78 | 1009.8 |
| 20260506121803 | 62 | 190 | 4.3 | 14.8 | 0.00 | 0.00 | 0.00 | 79 | 1009.6 |
| 20260506120903 | 62 | 216 | 4.3 | 14.8 | 0.00 | 0.00 | 0.00 | 80 | 1010.0 |
| 20260506120003 | 61 | 209 | 4.3 | 13.0 | 0.00 | 0.00 | 0.00 | 80 | 1009.9 |
| 20260506115403 | 61 | 207 | 4.3 | 13.0 | 0.00 | 0.00 | 0.00 | 79 | 1009.8 |
| 20260506114503 | 61 | 212 | 3.5 | 11.3 | 0.00 | 0.00 | 0.00 | 80 | 1009.7 |
| 20260506113603 | 60 | 201 | 2.6 | 7.8 | 0.00 | 0.00 | 0.00 | 81 | 1010.0 |
| 20260506112914 | 60 | 208 | 2.6 | 7.0 | 0.00 | 0.00 | 0.00 | 82 | 1010.1 |
| 20260506112013 | 60 | 196 | 3.5 | 12.2 | 0.00 | 0.00 | 0.00 | 82 | 1010.1 |
| 20260506110903 | 59 | 213 | 3.5 | 9.6 | 0.00 | 0.00 | 0.00 | 82 | 1010.4 |
| 20260506110003 | 59 | 199 | 4.3 | 8.7 | 0.00 | 0.00 | 0.00 | 83 | 1010.2 |
| 20260506105403 | 59 | 193 | 3.5 | 8.7 | 0.00 | 0.00 | 0.00 | 83 | 1010.0 |
| 20260506104713 | 58 | 183 | 3.5 | 8.7 | 0.00 | 0.00 | 0.00 | 83 | 1010.1 |
| 20260506103812 | 58 | 211 | 3.5 | 9.6 | 0.00 | 0.00 | 0.00 | 83 | 1010.2 |
| 20260506102703 | 58 | 195 | 1.7 | 7.0 | 0.00 | 0.00 | 0.00 | 84 | 1010.1 |
| 20260506102013 | 58 | 185 | 2.6 | 7.8 | 0.00 | 0.00 | 0.00 | 83 | 1009.9 |
| 20260506100903 | 58 | 192 | 3.5 | 9.6 | 0.00 | 0.00 | 0.00 | 83 | 1010.0 |
| 20260506100003 | 58 | 198 | 2.6 | 8.7 | 0.00 | 0.00 | 0.00 | 83 | 1010.0 |
| 20260506095615 | 58 | 193 | 2.6 | 9.6 | 0.00 | 0.00 | 0.00 | 83 | 1010.0 |
| 20260506094506 | 58 | 184 | 2.6 | 11.3 | 0.00 | 0.00 | 0.00 | 82 | 1009.9 |
| 20260506093603 | 58 | 189 | 2.6 | 8.7 | 0.00 | 0.00 | 0.00 | 82 | 1010.0 |
| 20260506092703 | 58 | 204 | 1.7 | 7.0 | 0.00 | 0.00 | 0.00 | 82 | 1009.8 |
| 20260506091803 | 58 | 196 | 1.7 | 7.0 | 0.00 | 0.00 | 0.00 | 81 | 1009.8 |
| 20260506090903 | 58 | 187 | 2.6 | 8.7 | 0.00 | 0.00 | 0.00 | 81 | 1009.9 |
| 20260506090213 | 58 | 178 | 2.6 | 8.7 | 0.00 | 0.00 | 0.00 | 81 | 1010.0 |
| 20260506085403 | 58 | 211 | 2.6 | 8.7 | 0.00 | 0.00 | 0.00 | 80 | 1010.0 |
| 20260506084503 | 59 | 198 | 2.6 | 9.6 | 0.00 | 0.00 | 0.00 | 80 | 1010.0 |
| 20260506083603 | 59 | 207 | 2.6 | 6.1 | 0.00 | 0.00 | 0.00 | 80 | 1010.1 |
| 20260506082703 | 59 | 206 | 1.7 | 7.0 | 0.00 | 0.00 | 0.00 | 80 | 1010.1 |
| 20260506081803 | 59 | 201 | 1.7 | 5.2 | 0.00 | 0.00 | 0.00 | 79 | 1010.1 |
| 20260506080903 | 59 | 216 | 2.6 | 7.8 | 0.00 | 0.00 | 0.00 | 79 | 1010.1 |
| 20260506072703 | 60 | 190 | 2.6 | 7.8 | 0.00 | 0.00 | 0.00 | 77 | 1010.1 |
| 20260506071803 | 60 | 204 | 2.6 | 8.7 | 0.00 | 0.00 | 0.00 | 76 | 1010.0 |
| 20260506070903 | 60 | 204 | 2.6 | 8.7 | 0.00 | 0.00 | 0.00 | 76 | 1009.9 |
| 20260506070212 | 60 | 190 | 3.5 | 8.7 | 0.00 | 0.00 | 0.00 | 75 | 1009.9 |
| 20260506062013 | 62 | 213 | 2.6 | 9.6 | 0.00 | 0.00 | 0.00 | 72 | 1009.8 |
| 20260506060903 | 62 | 208 | 3.5 | 10.4 | 0.00 | 0.00 | 0.00 | 71 | 1009.7 |
| 20260506050903 | 63 | 199 | 4.3 | 11.3 | 0.00 | 0.00 | 0.00 | 67 | 1010.0 |
| 20260506044503 | 63 | 203 | 4.3 | 12.2 | 0.00 | 0.00 | 0.00 | 65 | 1010.1 |
| 20260506043603 | 63 | 201 | 3.5 | 14.8 | 0.00 | 0.00 | 0.00 | 65 | 1010.0 |
| 20260506042703 | 63 | 204 | 4.3 | 10.4 | 0.00 | 0.00 | 0.00 | 65 | 1010.0 |
| 20260506041803 | 63 | 201 | 4.3 | 16.5 | 0.00 | 0.00 | 0.00 | 65 | 1010.1 |
| 20260506040903 | 63 | 197 | 3.5 | 14.8 | 0.00 | 0.00 | 0.00 | 65 | 1010.0 |
| 20260506040005 | 63 | 209 | 5.2 | 13.9 | 0.00 | 0.00 | 0.00 | 64 | 1010.1 |
| 20260506035403 | 63 | 215 | 5.2 | 16.5 | 0.00 | 0.00 | 0.00 | 65 | 1010.1 |
| 20260506034503 | 63 | 220 | 3.5 | 7.8 | 0.00 | 0.00 | 0.00 | 65 | 1010.2 |
| 20260506033603 | 63 | 201 | 3.5 | 12.2 | 0.00 | 0.00 | 0.00 | 65 | 1010.1 |
| 20260506032703 | 63 | 209 | 4.3 | 12.2 | 0.00 | 0.00 | 0.00 | 65 | 1010.0 |
| 20260506032014 | 63 | 222 | 3.5 | 12.2 | 0.00 | 0.00 | 0.00 | 65 | 1010.0 |
| 20260506030903 | 63 | 197 | 4.3 | 11.3 | 0.00 | 0.00 | 0.00 | 64 | 1010.1 |
| 20260506030004 | 63 | 207 | 3.5 | 9.6 | 0.00 | 0.00 | 0.00 | 64 | 1010.1 |
| 20260506025403 | 63 | 208 | 2.6 | 7.8 | 0.00 | 0.00 | 0.00 | 63 | 1010.0 |
| 20260506024503 | 63 | 199 | 3.5 | 9.6 | 0.00 | 0.00 | 0.00 | 63 | 1010.0 |
| 20260506023603 | 63 | 204 | 2.6 | 9.6 | 0.00 | 0.00 | 0.00 | 62 | 1009.9 |
| 20260506022912 | 64 | 200 | 2.6 | 12.2 | 0.00 | 0.00 | 0.00 | 62 | 1009.9 |
| 20260506021803 | 64 | 185 | 3.5 | 13.0 | 0.00 | 0.00 | 0.00 | 61 | 1010.0 |
| 20260506020903 | 64 | 209 | 3.5 | 10.4 | 0.00 | 0.00 | 0.00 | 61 | 1009.9 |
| 20260506020004 | 64 | 202 | 2.6 | 7.8 | 0.00 | 0.00 | 0.00 | 62 | 1010.0 |
| 20260506015403 | 64 | 222 | 2.6 | 7.8 | 0.00 | 0.00 | 0.00 | 62 | 1009.9 |
| 20260506014503 | 65 | 214 | 2.6 | 11.3 | 0.00 | 0.00 | 0.00 | 61 | 1009.8 |
| 20260506013603 | 65 | 200 | 2.6 | 8.7 | 0.00 | 0.00 | 0.00 | 60 | 1009.7 |
| 20260506012703 | 65 | 206 | 1.7 | 7.8 | 0.00 | 0.00 | 0.00 | 60 | 1009.5 |
| 20260506011803 | 66 | 199 | 3.5 | 11.3 | 0.00 | 0.00 | 0.00 | 59 | 1009.3 |